USA 164 (MILSTAR-2 3)

Last updated on Thu Oct 30 2025 00:02:47 GMT+0000 (Coordinated Universal Time)

1 27168U 02001A 25301.83933681 .00000111 00000+0 00000+0 0 9990 2 27168 10.9017 23.2462 0096303 2.3908 333.0208 1.00276172 30633
UTC large
Height (km)
Speed (km/s)
/
Latitude / Longitude
Inclination (degrees)
Orbital Period (minutes)
Azimuth
Elevation
Range (km)
Doppler Factor

Next 0 passes for location: London (51.5072 / 0.1276)

Sorry there are no passes over London.